STARLINK-36133, 66963

Orbit data source: Space-Track

STARLINK-36133, 66963 is a payload satellite owned by SpaceX/Seattle (US) in LEO that was launched on Mon, 08 Dec 2025 UTC via an FALCON 9 launch vehicle from the Air Force Eastern Test Range (AFETR). Payload-class satellites include a variety of spacecraft equipped with specific instruments for various scientific and technological missions. These include communications satellites like Starlink; space stations such as the ISS; scientific satellites like the Hubble; Earth observation satellites from companies like Planet Labs, Umbra, and HawkEye 360; GPS; miniature CubeSats for education and research; and military/defense satellites.

Loading next visibility...
Identifier
66963, 2025-288E
Orbit
LEO
Country
Flag of USUS
Related business
Manufacturer
SpaceX/Seattle
Mission
Operational Commercial Communications
Bus & Motor
STARLINK V2MO, Unknown motor
Mass
575 kg wet, ~530 kg dry
Launch date (UTC)
2025-12-08 (5 months ago)
Launch vehicle
FALCON 9
Launch site
Air Force Eastern Test Range (AFETR)
Object type
Payload
Rocket body
Debris
Shape & HBR
Box + 2 Pan, 17.7 m
Radar Cross Section
36.964 m²

Expand to show TLE details & history
Last TLE update: 12 hours ago

TLE from 12 hours ago
0 STARLINK-36133
1 66963U 25288E   26130.00455828  .00012974  00000-0  48046-3 0  9997
2 66963  43.0041  37.2763 0001449 299.1858  60.8849 15.27559644 24663
Epoch: 2026-05-10T00:06Z
TLE epoch observation values (Epoch: 2026-05-10T00:06:33.835Z)
Latitude
0.00001°
Longitude
167.82147°
Altitude
482.402 km
Speed
7.626 km/s
True Right ascension
02h 29m 06s
True Declination
0° 00' 00"
Sunlit
Object was in daylight at epoch
Visualization orbit readout
Latitude
Unknown
Longitude
Unknown
Altitude
Unknown
Speed
Unknown
Apparent Right ascension
Unknown
Apparent Declination
Unknown
Sunlit
N/A
Visualization observer readout
Local Sidereal Time
19:49:15
Azimuth
Unknown
Elevation
Unknown
Doppler factor
Unknown
Orbital elements
Apogee altitude
486.049 km
Perigee altitude
484.06 km
Semi-major axis
6,863.192 km
Eccentricity
0.00014
Inclination
43.0041°
RAAN
37.2763°
Arg. of periapsis
299.1858°
True anomaly
60.89941°
Mean anomaly
60.8849°
Eccentric anomaly
60.89215°
Mean motion
3.81728 °/min
Orbital period
94.31 mins
BSTAR
0.00048046
Loading maneuver chart data...
Computing Atmospheric mass density...
Loading historical data...
Loading historical data...
Loading historical data...
Loading historical data...
Loading historical data...
Loading historical data...
Loading historical data...

Documentation

Showing up to 5 results
|